| time (UTC) | temp F | wind direction | speed knots | gust knots | rain 1hr in | rain 24hr in | rain mn in | humidity % | barometer mb |
| 20260508214558 | 71 | 145 | 0.9 | 0.9 | 0.00 | 0.00 | 0.00 | 51 | 1014.9 |
| 20260508214055 | 72 | 150 | 0.0 | 2.6 | 0.00 | 0.00 | 0.00 | 50 | 1015.0 |
| 20260508213552 | 72 | 160 | 0.0 | 0.9 | 0.00 | 0.00 | 0.00 | 46 | 1014.8 |
| 20260508213048 | 72 | 118 | 0.9 | 0.9 | 0.00 | 0.00 | 0.00 | 45 | 1015.0 |
| 20260508212545 | 72 | 123 | 0.9 | 1.7 | 0.00 | 0.00 | 0.00 | 43 | 1014.9 |
| 20260508212041 | 72 | 138 | 0.0 | 0.9 | 0.00 | 0.00 | 0.00 | 48 | 1014.9 |
| 20260508211537 | 72 | 161 | 0.9 | 1.7 | 0.00 | 0.00 | 0.00 | 51 | 1015.1 |
| 20260508211033 | 72 | 133 | 0.0 | 1.7 | 0.00 | 0.00 | 0.00 | 45 | 1014.8 |
| 20260508210530 | 71 | 153 | 0.0 | 0.0 | 0.00 | 0.00 | 0.00 | 50 | 1014.7 |
| 20260508210028 | 72 | 159 | 0.0 | 0.9 | 0.00 | 0.00 | 0.00 | 48 | 1014.7 |
| 20260508205524 | 72 | 148 | 0.0 | 0.9 | 0.00 | 0.00 | 0.00 | 47 | 1014.9 |
| 20260508205020 | 73 | 139 | 0.0 | 0.9 | 0.00 | 0.00 | 0.00 | 46 | 1014.8 |
| 20260508204518 | 73 | 158 | 0.9 | 1.7 | 0.00 | 0.00 | 0.00 | 47 | 1014.8 |
| 20260508204013 | 73 | 150 | 0.0 | 0.9 | 0.00 | 0.00 | 0.00 | 46 | 1015.2 |
| 20260508203509 | 73 | 149 | 0.9 | 0.9 | 0.00 | 0.00 | 0.00 | 45 | 1015.0 |
| 20260508203005 | 73 | 70 | 0.0 | 0.9 | 0.00 | 0.00 | 0.00 | 42 | 1015.1 |
| 20260508202503 | 74 | 156 | 0.9 | 1.7 | 0.00 | 0.00 | 0.00 | 42 | 1015.1 |
| 20260508201959 | 73 | 147 | 0.0 | 0.9 | 0.00 | 0.00 | 0.00 | 40 | 1015.1 |
| 20260508201456 | 72 | 120 | 0.0 | 0.9 | 0.00 | 0.00 | 0.00 | 42 | 1015.0 |
| 20260508200953 | 73 | 124 | 0.9 | 0.9 | 0.00 | 0.00 | 0.00 | 44 | 1015.2 |
| 20260508200450 | 73 | 140 | 0.0 | 0.9 | 0.00 | 0.00 | 0.00 | 45 | 1015.2 |
| 20260508195944 | 72 | 121 | 0.0 | 1.7 | 0.00 | 0.00 | 0.00 | 46 | 1015.3 |
| 20260508195442 | 72 | 141 | 0.0 | 0.9 | 0.00 | 0.00 | 0.00 | 44 | 1015.4 |
| 20260508194938 | 73 | 154 | 0.0 | 0.9 | 0.00 | 0.00 | 0.00 | 47 | 1015.6 |
| 20260508194436 | 75 | 152 | 0.0 | 1.7 | 0.00 | 0.00 | 0.00 | 41 | 1015.6 |
| 20260508193932 | 74 | 139 | 0.0 | 1.7 | 0.00 | 0.00 | 0.00 | 40 | 1015.4 |
| 20260508193430 | 72 | 124 | 0.0 | 2.6 | 0.00 | 0.00 | 0.00 | 43 | 1015.6 |
| 20260508192926 | 71 | 149 | 0.0 | 2.6 | 0.00 | 0.00 | 0.00 | 48 | 1015.8 |
| 20260508192423 | 71 | 135 | 0.0 | 0.9 | 0.00 | 0.00 | 0.00 | 45 | 1016.1 |
| 20260508191919 | 72 | 147 | 0.0 | 0.9 | 0.00 | 0.00 | 0.00 | 45 | 1016.3 |
| 20260508191417 | 72 | 94 | 0.9 | 1.7 | 0.00 | 0.00 | 0.00 | 41 | 1016.2 |
| 20260508190913 | 70 | 135 | 0.0 | 0.9 | 0.00 | 0.00 | 0.00 | 44 | 1016.3 |
| 20260508190411 | 70 | 130 | 0.0 | 1.7 | 0.00 | 0.00 | 0.00 | 47 | 1016.2 |
| 20260508185907 | 70 | 131 | 0.0 | 0.9 | 0.00 | 0.00 | 0.00 | 45 | 1016.4 |
| 20260508185405 | 70 | 141 | 0.0 | 0.9 | 0.00 | 0.00 | 0.00 | 47 | 1016.7 |
| 20260508184902 | 69 | 120 | 0.0 | 0.9 | 0.00 | 0.00 | 0.00 | 53 | 1016.7 |
| 20260508184359 | 69 | 115 | 0.0 | 0.9 | 0.00 | 0.00 | 0.00 | 47 | 1016.7 |
| 20260508183855 | 70 | 147 | 0.0 | 0.9 | 0.00 | 0.00 | 0.00 | 47 | 1016.9 |
| 20260508183352 | 72 | 33 | 1.7 | 2.6 | 0.00 | 0.00 | 0.00 | 43 | 1016.7 |
| 20260508182848 | 73 | 132 | 0.0 | 0.9 | 0.00 | 0.00 | 0.00 | 41 | 1016.9 |
| 20260508182345 | 71 | 96 | 1.7 | 2.6 | 0.00 | 0.00 | 0.00 | 47 | 1017.0 |
| 20260508181840 | 70 | 124 | 0.9 | 0.9 | 0.00 | 0.00 | 0.00 | 56 | 1017.2 |
| 20260508181337 | 71 | 130 | 0.0 | 0.9 | 0.00 | 0.00 | 0.00 | 45 | 1017.2 |
| 20260508180834 | 71 | 139 | 0.9 | 1.7 | 0.00 | 0.00 | 0.00 | 46 | 1017.1 |
| 20260508180331 | 72 | 119 | 0.9 | 0.9 | 0.00 | 0.00 | 0.00 | 43 | 1016.8 |
| 20260508175827 | 71 | 115 | 0.9 | 2.6 | 0.00 | 0.00 | 0.00 | 46 | 1017.1 |
| 20260508175324 | 72 | 38 | 1.7 | 1.7 | 0.00 | 0.00 | 0.00 | 46 | 1017.3 |
| 20260508174822 | 71 | 94 | 0.9 | 0.9 | 0.00 | 0.00 | 0.00 | 48 | 1017.4 |
| 20260508174319 | 70 | 145 | 0.0 | 0.9 | 0.00 | 0.00 | 0.00 | 47 | 1017.6 |
| 20260508173815 | 73 | 56 | 1.7 | 3.5 | 0.00 | 0.00 | 0.00 | 42 | 1017.5 |
| 20260508173313 | 73 | 134 | 0.9 | 0.9 | 0.00 | 0.00 | 0.00 | 43 | 1017.3 |
| 20260508172808 | 71 | 133 | 0.0 | 0.9 | 0.00 | 0.00 | 0.00 | 43 | 1017.6 |
| 20260508172307 | 72 | 144 | 0.0 | 0.9 | 0.00 | 0.00 | 0.00 | 43 | 1017.6 |
| 20260508171802 | 72 | 140 | 0.0 | 1.7 | 0.00 | 0.00 | 0.00 | 44 | 1017.5 |
| 20260508171258 | 72 | 138 | 0.0 | 0.9 | 0.00 | 0.00 | 0.00 | 44 | 1017.8 |
| 20260508170755 | 71 | 148 | 0.0 | 0.9 | 0.00 | 0.00 | 0.00 | 46 | 1018.1 |
| 20260508170253 | 69 | 127 | 0.9 | 0.9 | 0.00 | 0.00 | 0.00 | 54 | 1017.9 |
| 20260508165749 | 68 | 130 | 0.0 | 0.9 | 0.00 | 0.00 | 0.00 | 54 | 1018.1 |
| 20260508165247 | 69 | 161 | 0.0 | 1.7 | 0.00 | 0.00 | 0.00 | 49 | 1018.1 |
| 20260508164743 | 69 | 103 | 0.0 | 1.7 | 0.00 | 0.00 | 0.00 | 44 | 1018.1 |
| 20260508164240 | 68 | 44 | 1.7 | 2.6 | 0.00 | 0.00 | 0.00 | 55 | 1018.3 |
| 20260508163738 | 65 | 117 | 0.0 | 1.7 | 0.00 | 0.00 | 0.00 | 55 | 1018.6 |
| 20260508163235 | 66 | 143 | 0.9 | 0.9 | 0.00 | 0.00 | 0.00 | 52 | 1018.5 |
| 20260508162731 | 66 | 136 | 0.0 | 0.0 | 0.00 | 0.00 | 0.00 | 51 | 1018.6 |
| 20260508162228 | 67 | 114 | 0.0 | 5.2 | 0.00 | 0.00 | 0.00 | 47 | 1018.4 |
| 20260508161725 | 68 | 100 | 0.9 | 2.6 | 0.00 | 0.00 | 0.00 | 47 | 1018.5 |
| 20260508161222 | 68 | 35 | 3.5 | 6.1 | 0.00 | 0.00 | 0.00 | 44 | 1018.7 |
| 20260508160720 | 67 | 28 | 3.5 | 3.5 | 0.00 | 0.00 | 0.00 | 48 | 1018.6 |
| 20260508160218 | 66 | 95 | 0.0 | 1.7 | 0.00 | 0.00 | 0.00 | 49 | 1019.0 |
| 20260508155714 | 65 | 39 | 1.7 | 2.6 | 0.00 | 0.00 | 0.00 | 49 | 1019.0 |
| 20260508155212 | 65 | 118 | 0.0 | 0.0 | 0.00 | 0.00 | 0.00 | 53 | 1019.0 |
| 20260508154708 | 65 | 143 | 0.0 | 0.9 | 0.00 | 0.00 | 0.00 | 53 | 1019.1 |
| 20260508154206 | 66 | 159 | 0.9 | 1.7 | 0.00 | 0.00 | 0.00 | 47 | 1018.7 |
| 20260508153702 | 68 | 160 | 0.9 | 0.9 | 0.00 | 0.00 | 0.00 | 50 | 1018.9 |
| 20260508153159 | 69 | 117 | 0.9 | 2.6 | 0.00 | 0.00 | 0.00 | 47 | 1019.2 |
| 20260508152655 | 68 | 39 | 1.7 | 2.6 | 0.00 | 0.00 | 0.00 | 48 | 1019.2 |
| 20260508152152 | 67 | 68 | 2.6 | 3.5 | 0.00 | 0.00 | 0.00 | 49 | 1019.2 |
| 20260508151648 | 66 | 119 | 0.9 | 6.1 | 0.00 | 0.00 | 0.00 | 56 | 1019.2 |
| 20260508151145 | 66 | 142 | 0.9 | 1.7 | 0.00 | 0.00 | 0.00 | 51 | 1019.1 |
| 20260508150642 | 65 | 303 | 2.6 | 3.5 | 0.00 | 0.00 | 0.00 | 48 | 1019.1 |
| 20260508150138 | 66 | 73 | 0.9 | 1.7 | 0.00 | 0.00 | 0.00 | 50 | 1019.2 |
| 20260508145634 | 66 | 126 | 1.7 | 1.7 | 0.00 | 0.00 | 0.00 | 49 | 1019.2 |
| 20260508145131 | 66 | 310 | 0.9 | 0.9 | 0.00 | 0.00 | 0.00 | 51 | 1019.2 |
| 20260508144628 | 66 | 29 | 1.7 | 2.6 | 0.00 | 0.00 | 0.00 | 44 | 1019.2 |
| 20260508144126 | 66 | 140 | 0.9 | 2.6 | 0.00 | 0.00 | 0.00 | 46 | 1019.2 |
| 20260508143623 | 66 | 125 | 0.0 | 0.9 | 0.00 | 0.00 | 0.00 | 47 | 1019.5 |
| 20260508143120 | 67 | 172 | 2.6 | 3.5 | 0.00 | 0.00 | 0.00 | 46 | 1019.3 |
| 20260508142616 | 66 | 152 | 0.9 | 2.6 | 0.00 | 0.00 | 0.00 | 49 | 1019.5 |
| 20260508142113 | 65 | 138 | 0.9 | 2.6 | 0.00 | 0.00 | 0.00 | 49 | 1019.6 |
| 20260508141610 | 64 | 125 | 0.0 | 1.7 | 0.00 | 0.00 | 0.00 | 53 | 1019.4 |
| 20260508141108 | 63 | 131 | 0.9 | 1.7 | 0.00 | 0.00 | 0.00 | 54 | 1019.3 |
| 20260508140604 | 62 | 121 | 0.0 | 0.9 | 0.00 | 0.00 | 0.00 | 56 | 1019.6 |
| 20260508135556 | 62 | 80 | 0.9 | 1.7 | 0.00 | 0.00 | 0.00 | 54 | 1019.6 |
| 20260508135053 | 62 | 122 | 0.0 | 0.0 | 0.00 | 0.00 | 0.00 | 54 | 1019.5 |
| 20260508134550 | 60 | 106 | 0.0 | 0.9 | 0.00 | 0.00 | 0.00 | 56 | 1019.5 |
| 20260508134047 | 60 | 110 | 0.9 | 1.7 | 0.00 | 0.00 | 0.00 | 57 | 1019.7 |
| 20260508133543 | 59 | 133 | 0.9 | 1.7 | 0.00 | 0.00 | 0.00 | 59 | 1019.7 |
| 20260508133041 | 59 | 113 | 0.9 | 3.5 | 0.00 | 0.00 | 0.00 | 60 | 1019.7 |
| 20260508132539 | 58 | 169 | 0.9 | 1.7 | 0.00 | 0.00 | 0.00 | 62 | 1019.5 |
| 20260508132035 | 58 | 162 | 0.0 | 0.9 | 0.00 | 0.00 | 0.00 | 65 | 1019.4 |
| 20260508131530 | 57 | 162 | 0.9 | 0.9 | 0.00 | 0.00 | 0.00 | 68 | 1019.4 |
| 20260508131027 | 57 | 149 | 0.9 | 1.7 | 0.00 | 0.00 | 0.00 | 67 | 1019.4 |
| 20260508130525 | 56 | 153 | 0.0 | 0.9 | 0.00 | 0.00 | 0.00 | 71 | 1019.3 |
| 20260508130021 | 56 | 128 | 0.9 | 0.9 | 0.00 | 0.00 | 0.00 | 74 | 1019.4 |
| 20260508125516 | 56 | 158 | 0.0 | 0.9 | 0.00 | 0.00 | 0.00 | 74 | 1019.3 |
| 20260508125015 | 55 | 108 | 0.0 | 0.9 | 0.00 | 0.00 | 0.00 | 74 | 1019.2 |
| 20260508124512 | 55 | 120 | 0.0 | 0.9 | 0.00 | 0.00 | 0.00 | 74 | 1019.4 |
| 20260508124009 | 54 | 146 | 0.0 | 0.9 | 0.00 | 0.00 | 0.00 | 78 | 1019.1 |
| 20260508123508 | 53 | 142 | 0.0 | 0.0 | 0.00 | 0.00 | 0.00 | 80 | 1019.3 |
| 20260508123004 | 53 | 147 | 0.0 | 0.0 | 0.00 | 0.00 | 0.00 | 83 | 1019.3 |
| 20260508122501 | 52 | 147 | 0.0 | 0.0 | 0.00 | 0.00 | 0.00 | 85 | 1018.9 |
| 20260508121958 | 52 | 147 | 0.0 | 0.9 | 0.00 | 0.00 | 0.00 | 85 | 1018.9 |
| 20260508121456 | 51 | 150 | 0.0 | 0.9 | 0.00 | 0.00 | 0.00 | 88 | 1019.0 |
| 20260508120954 | 51 | 150 | 0.9 | 0.9 | 0.00 | 0.00 | 0.00 | 88 | 1018.7 |
| 20260508120451 | 51 | 150 | 0.0 | 0.9 | 0.00 | 0.00 | 0.00 | 87 | 1018.7 |
| 20260508115949 | 50 | 158 | 0.0 | 0.9 | 0.00 | 0.00 | 0.00 | 88 | 1019.0 |
| 20260508115447 | 50 | 154 | 0.0 | 0.9 | 0.00 | 0.00 | 0.00 | 90 | 1018.7 |
| 20260508114943 | 49 | 154 | 0.0 | 0.0 | 0.00 | 0.00 | 0.00 | 93 | 1018.9 |
| 20260508114440 | 48 | 154 | 0.0 | 0.0 | 0.00 | 0.00 | 0.00 | 94 | 1018.7 |
| 20260508113936 | 48 | 154 | 0.0 | 0.0 | 0.00 | 0.00 | 0.00 | 95 | 1018.3 |
| 20260508113434 | 48 | 154 | 0.0 | 0.0 | 0.00 | 0.00 | 0.00 | 95 | 1018.5 |
| 20260508112931 | 48 | 154 | 0.0 | 0.0 | 0.00 | 0.00 | 0.00 | 95 | 1018.4 |
| 20260508112428 | 47 | 155 | 0.0 | 1.7 | 0.00 | 0.00 | 0.00 | 96 | 1018.4 |
| 20260508111924 | 47 | 92 | 0.0 | 0.0 | 0.00 | 0.00 | 0.00 | 95 | 1018.2 |
| 20260508111422 | 46 | 90 | 0.0 | 1.7 | 0.00 | 0.00 | 0.00 | 95 | 1018.1 |
| 20260508110919 | 46 | 123 | 0.0 | 0.0 | 0.00 | 0.00 | 0.00 | 95 | 1018.1 |
| 20260508110417 | 46 | 123 | 0.0 | 0.0 | 0.00 | 0.00 | 0.00 | 95 | 1018.2 |
| 20260508105916 | 46 | 123 | 0.0 | 0.0 | 0.00 | 0.00 | 0.00 | 95 | 1018.1 |
| 20260508105413 | 46 | 123 | 0.0 | 0.0 | 0.00 | 0.00 | 0.00 | 95 | 1017.9 |
| 20260508104910 | 46 | 123 | 0.0 | 0.0 | 0.00 | 0.00 | 0.00 | 95 | 1018.0 |
| 20260508104407 | 46 | 123 | 0.0 | 0.0 | 0.00 | 0.00 | 0.00 | 95 | 1017.7 |
| 20260508103904 | 46 | 123 | 0.0 | 0.0 | 0.00 | 0.00 | 0.00 | 95 | 1017.8 |
| 20260508103401 | 46 | 123 | 0.0 | 0.0 | 0.00 | 0.00 | 0.00 | 95 | 1017.6 |
| 20260508102858 | 46 | 122 | 0.0 | 0.0 | 0.00 | 0.00 | 0.00 | 95 | 1017.5 |
| 20260508102356 | 46 | 122 | 0.0 | 0.0 | 0.00 | 0.00 | 0.00 | 95 | 1017.5 |
| 20260508101853 | 47 | 124 | 0.0 | 0.0 | 0.00 | 0.00 | 0.00 | 95 | 1017.4 |
| 20260508101350 | 46 | 124 | 0.0 | 0.9 | 0.00 | 0.00 | 0.00 | 95 | 1017.4 |
| 20260508100848 | 46 | 107 | 0.0 | 0.0 | 0.00 | 0.00 | 0.00 | 95 | 1017.3 |
| 20260508100347 | 46 | 153 | 0.0 | 0.9 | 0.00 | 0.00 | 0.00 | 95 | 1017.3 |
| 20260508095842 | 46 | 152 | 0.0 | 0.9 | 0.00 | 0.00 | 0.00 | 94 | 1017.1 |
| 20260508095340 | 46 | 143 | 0.9 | 0.9 | 0.00 | 0.00 | 0.00 | 94 | 1017.1 |
| 20260508094836 | 46 | 138 | 0.0 | 0.0 | 0.00 | 0.00 | 0.00 | 94 | 1017.1 |
| 20260508094333 | 46 | 154 | 0.0 | 0.9 | 0.00 | 0.00 | 0.00 | 94 | 1017.1 |
| 20260508093830 | 46 | 139 | 0.0 | 0.9 | 0.00 | 0.00 | 0.00 | 94 | 1017.0 |
| 20260508093328 | 46 | 139 | 0.0 | 0.0 | 0.00 | 0.00 | 0.00 | 94 | 1017.1 |
| 20260508092825 | 47 | 138 | 0.9 | 0.9 | 0.00 | 0.00 | 0.00 | 93 | 1017.1 |
| 20260508092323 | 47 | 172 | 0.0 | 0.9 | 0.00 | 0.00 | 0.00 | 94 | 1016.9 |
| 20260508091821 | 47 | 173 | 0.0 | 0.9 | 0.00 | 0.00 | 0.00 | 93 | 1017.1 |
| 20260508091317 | 47 | 173 | 0.0 | 0.9 | 0.00 | 0.00 | 0.00 | 93 | 1016.8 |
| 20260508090815 | 47 | 138 | 0.0 | 0.9 | 0.00 | 0.00 | 0.00 | 93 | 1017.0 |
| 20260508090314 | 47 | 138 | 0.0 | 0.9 | 0.00 | 0.00 | 0.00 | 94 | 1016.9 |
| 20260508085809 | 47 | 138 | 0.0 | 0.0 | 0.00 | 0.00 | 0.00 | 94 | 1016.7 |
| 20260508085307 | 47 | 138 | 0.0 | 0.9 | 0.00 | 0.00 | 0.00 | 94 | 1016.7 |
| 20260508084802 | 47 | 114 | 0.0 | 0.0 | 0.00 | 0.00 | 0.00 | 93 | 1016.7 |
| 20260508084259 | 48 | 113 | 0.0 | 0.9 | 0.00 | 0.00 | 0.00 | 93 | 1016.5 |
| 20260508083757 | 48 | 110 | 0.9 | 0.9 | 0.00 | 0.00 | 0.00 | 93 | 1016.7 |
| 20260508083254 | 48 | 161 | 0.0 | 0.0 | 0.00 | 0.00 | 0.00 | 93 | 1016.7 |
| 20260508082753 | 48 | 161 | 0.0 | 0.0 | 0.00 | 0.00 | 0.00 | 93 | 1016.5 |
| 20260508082252 | 48 | 161 | 0.0 | 0.9 | 0.00 | 0.00 | 0.00 | 93 | 1016.5 |
| 20260508081749 | 48 | 161 | 0.0 | 0.0 | 0.00 | 0.00 | 0.00 | 92 | 1016.5 |
| 20260508081245 | 48 | 161 | 0.0 | 0.0 | 0.00 | 0.00 | 0.00 | 92 | 1016.5 |
| 20260508080742 | 48 | 163 | 0.0 | 0.9 | 0.00 | 0.00 | 0.00 | 92 | 1016.2 |
| 20260508080240 | 48 | 163 | 0.0 | 0.0 | 0.00 | 0.00 | 0.00 | 92 | 1016.4 |
| 20260508075737 | 48 | 165 | 0.0 | 1.7 | 0.00 | 0.00 | 0.00 | 92 | 1016.5 |
| 20260508075233 | 48 | 152 | 0.0 | 0.9 | 0.00 | 0.00 | 0.00 | 92 | 1016.3 |
| 20260508074731 | 48 | 113 | 0.0 | 0.0 | 0.00 | 0.00 | 0.00 | 91 | 1016.2 |
| 20260508074229 | 49 | 106 | 0.9 | 0.9 | 0.00 | 0.00 | 0.00 | 90 | 1016.2 |
| 20260508073725 | 49 | 108 | 0.0 | 1.7 | 0.00 | 0.00 | 0.00 | 89 | 1016.1 |
| 20260508073223 | 49 | 108 | 0.0 | 0.9 | 0.00 | 0.00 | 0.00 | 90 | 1016.1 |
| 20260508072719 | 49 | 158 | 0.0 | 0.9 | 0.00 | 0.00 | 0.00 | 91 | 1015.9 |
| 20260508072216 | 49 | 155 | 0.0 | 0.0 | 0.00 | 0.00 | 0.00 | 91 | 1015.9 |
| 20260508071713 | 49 | 155 | 0.0 | 0.0 | 0.00 | 0.00 | 0.00 | 91 | 1016.0 |
| 20260508071212 | 49 | 155 | 0.0 | 0.9 | 0.00 | 0.00 | 0.00 | 90 | 1016.0 |
| 20260508070709 | 49 | 155 | 0.0 | 0.0 | 0.00 | 0.00 | 0.00 | 90 | 1016.0 |
| 20260508070208 | 49 | 156 | 0.0 | 0.9 | 0.00 | 0.00 | 0.00 | 90 | 1015.8 |
| 20260508065704 | 50 | 157 | 0.0 | 0.9 | 0.00 | 0.00 | 0.00 | 89 | 1016.0 |
| 20260508065202 | 50 | 103 | 0.0 | 0.9 | 0.00 | 0.00 | 0.00 | 88 | 1015.6 |
| 20260508064700 | 50 | 143 | 0.0 | 0.9 | 0.00 | 0.00 | 0.00 | 88 | 1015.6 |
| 20260508064158 | 50 | 117 | 0.0 | 0.9 | 0.00 | 0.00 | 0.00 | 87 | 1015.5 |
| 20260508063655 | 51 | 142 | 0.0 | 0.0 | 0.00 | 0.00 | 0.00 | 86 | 1015.5 |
| 20260508063153 | 51 | 143 | 0.9 | 0.9 | 0.00 | 0.00 | 0.00 | 86 | 1015.6 |
| 20260508062650 | 51 | 139 | 0.0 | 0.0 | 0.00 | 0.00 | 0.00 | 85 | 1015.9 |
| 20260508062147 | 52 | 139 | 0.0 | 0.0 | 0.00 | 0.00 | 0.00 | 84 | 1015.9 |
| 20260508061643 | 52 | 139 | 0.0 | 0.9 | 0.00 | 0.00 | 0.00 | 82 | 1015.5 |
| 20260508061141 | 52 | 133 | 0.0 | 0.9 | 0.00 | 0.00 | 0.00 | 81 | 1015.5 |
| 20260508060638 | 53 | 145 | 0.9 | 1.7 | 0.00 | 0.00 | 0.00 | 80 | 1015.6 |
| 20260508060135 | 53 | 149 | 0.9 | 1.7 | 0.00 | 0.00 | 0.00 | 79 | 1015.6 |
| 20260508055630 | 53 | 140 | 0.9 | 0.9 | 0.00 | 0.00 | 0.00 | 77 | 1015.6 |
| 20260508055128 | 54 | 184 | 0.9 | 1.7 | 0.00 | 0.00 | 0.00 | 76 | 1015.8 |
| 20260508054624 | 55 | 133 | 1.7 | 1.7 | 0.00 | 0.00 | 0.00 | 74 | 1015.8 |
| 20260508054122 | 56 | 153 | 0.0 | 0.9 | 0.00 | 0.00 | 0.00 | 71 | 1015.8 |
| 20260508053618 | 55 | 151 | 1.7 | 2.6 | 0.00 | 0.00 | 0.00 | 68 | 1015.8 |
| 20260508053116 | 55 | 176 | 1.7 | 2.6 | 0.00 | 0.00 | 0.00 | 70 | 1015.8 |
| 20260508052613 | 55 | 144 | 0.9 | 1.7 | 0.00 | 0.00 | 0.00 | 71 | 1015.8 |
| 20260508052110 | 55 | 136 | 0.0 | 0.9 | 0.00 | 0.00 | 0.00 | 73 | 1015.8 |
| 20260508051606 | 56 | 152 | 0.9 | 0.9 | 0.00 | 0.00 | 0.00 | 70 | 1015.8 |
| 20260508051102 | 55 | 189 | 0.9 | 2.6 | 0.00 | 0.00 | 0.00 | 71 | 1015.8 |
| 20260508050558 | 55 | 153 | 0.0 | 0.9 | 0.00 | 0.00 | 0.00 | 73 | 1015.5 |
| 20260508050056 | 54 | 156 | 0.0 | 0.9 | 0.00 | 0.00 | 0.00 | 72 | 1015.3 |
| 20260508045552 | 53 | 146 | 0.9 | 1.7 | 0.00 | 0.00 | 0.00 | 74 | 1015.8 |
| 20260508045050 | 53 | 156 | 0.9 | 0.9 | 0.00 | 0.00 | 0.00 | 77 | 1015.8 |
| 20260508044547 | 53 | 156 | 0.9 | 1.7 | 0.00 | 0.00 | 0.00 | 78 | 1015.3 |
| 20260508044043 | 53 | 147 | 0.9 | 0.9 | 0.00 | 0.00 | 0.00 | 78 | 1015.5 |
| 20260508043539 | 53 | 151 | 0.0 | 0.9 | 0.00 | 0.00 | 0.00 | 79 | 1015.4 |
| 20260508043037 | 53 | 154 | 1.7 | 2.6 | 0.00 | 0.00 | 0.00 | 79 | 1015.3 |
| 20260508042533 | 54 | 149 | 0.0 | 0.9 | 0.00 | 0.00 | 0.00 | 79 | 1015.4 |
| 20260508042031 | 54 | 157 | 0.0 | 0.9 | 0.00 | 0.00 | 0.00 | 77 | 1015.4 |
| 20260508041527 | 54 | 123 | 0.0 | 0.9 | 0.00 | 0.00 | 0.00 | 76 | 1015.0 |
| 20260508041024 | 54 | 152 | 0.9 | 1.7 | 0.00 | 0.00 | 0.00 | 76 | 1015.3 |
| 20260508040521 | 55 | 158 | 0.9 | 1.7 | 0.00 | 0.00 | 0.00 | 75 | 1015.4 |
| 20260508040018 | 56 | 150 | 0.9 | 0.9 | 0.00 | 0.55 | 0.55 | 70 | 1015.3 |
| 20260508035515 | 56 | 147 | 1.7 | 1.7 | 0.00 | 0.55 | 0.55 | 70 | 1015.2 |
| 20260508035012 | 56 | 156 | 0.0 | 1.7 | 0.00 | 0.55 | 0.55 | 68 | 1015.2 |
| 20260508034509 | 56 | 112 | 0.0 | 0.9 | 0.00 | 0.55 | 0.55 | 68 | 1015.4 |
| 20260508034006 | 56 | 136 | 1.7 | 2.6 | 0.00 | 0.55 | 0.55 | 70 | 1015.4 |
| 20260508033504 | 55 | 146 | 1.7 | 2.6 | 0.00 | 0.55 | 0.55 | 70 | 1015.3 |
| 20260508033001 | 56 | 153 | 0.0 | 0.9 | 0.00 | 0.55 | 0.55 | 72 | 1015.1 |
| 20260508032458 | 56 | 162 | 1.7 | 1.7 | 0.00 | 0.55 | 0.55 | 69 | 1015.3 |
| 20260508031955 | 57 | 112 | 1.7 | 2.6 | 0.00 | 0.55 | 0.55 | 70 | 1015.3 |
| 20260508031453 | 58 | 163 | 1.7 | 1.7 | 0.00 | 0.55 | 0.55 | 63 | 1015.2 |
| 20260508030948 | 57 | 135 | 1.7 | 1.7 | 0.00 | 0.55 | 0.55 | 69 | 1015.4 |
| 20260508030445 | 57 | 149 | 0.0 | 0.9 | 0.00 | 0.55 | 0.55 | 67 | 1015.4 |
| 20260508025943 | 58 | 174 | 0.9 | 1.7 | 0.00 | 0.55 | 0.55 | 62 | 1015.4 |
| 20260508025439 | 58 | 120 | 0.0 | 6.1 | 0.00 | 0.55 | 0.55 | 61 | 1015.3 |
| 20260508024936 | 58 | 162 | 0.9 | 2.6 | 0.00 | 0.55 | 0.55 | 65 | 1015.2 |
| 20260508024432 | 58 | 160 | 0.0 | 5.2 | 0.00 | 0.55 | 0.55 | 64 | 1015.2 |
| 20260508023929 | 58 | 140 | 1.7 | 5.2 | 0.00 | 0.55 | 0.55 | 61 | 1014.9 |
| 20260508023426 | 58 | 155 | 0.9 | 1.7 | 0.00 | 0.55 | 0.55 | 63 | 1015.1 |
| 20260508022923 | 57 | 148 | 0.9 | 1.7 | 0.00 | 0.55 | 0.55 | 62 | 1015.0 |
| 20260508022419 | 57 | 126 | 2.6 | 3.5 | 0.00 | 0.55 | 0.55 | 63 | 1015.0 |
| 20260508021916 | 57 | 140 | 0.0 | 2.6 | 0.00 | 0.55 | 0.55 | 67 | 1014.9 |
| 20260508021412 | 58 | 123 | 0.0 | 1.7 | 0.00 | 0.55 | 0.55 | 64 | 1014.8 |
| 20260508020908 | 58 | 118 | 1.7 | 1.7 | 0.00 | 0.55 | 0.55 | 63 | 1014.8 |
| 20260508020406 | 58 | 169 | 0.9 | 1.7 | 0.00 | 0.55 | 0.55 | 64 | 1014.7 |
| 20260508015903 | 58 | 132 | 0.9 | 0.9 | 0.00 | 0.55 | 0.55 | 66 | 1014.5 |
| 20260508015400 | 58 | 124 | 0.9 | 2.6 | 0.00 | 0.55 | 0.55 | 61 | 1014.3 |
| 20260508014856 | 59 | 113 | 0.9 | 2.6 | 0.00 | 0.55 | 0.55 | 60 | 1014.4 |
| 20260508014354 | 58 | 27 | 1.7 | 3.5 | 0.00 | 0.55 | 0.55 | 61 | 1014.2 |
| 20260508013849 | 58 | 130 | 1.7 | 3.5 | 0.00 | 0.55 | 0.55 | 60 | 1014.3 |
| 20260508013346 | 57 | 156 | 0.0 | 1.7 | 0.00 | 0.55 | 0.55 | 62 | 1014.3 |
| 20260508012843 | 58 | 116 | 0.0 | 0.9 | 0.00 | 0.55 | 0.55 | 66 | 1014.4 |
| 20260508012340 | 59 | 143 | 0.0 | 2.6 | 0.00 | 0.55 | 0.55 | 61 | 1014.2 |
| 20260508011838 | 58 | 142 | 0.0 | 2.6 | 0.00 | 0.55 | 0.55 | 60 | 1013.9 |
| 20260508011336 | 59 | 153 | 0.0 | 0.9 | 0.00 | 0.55 | 0.55 | 64 | 1013.8 |
| 20260508010832 | 59 | 149 | 0.0 | 0.9 | 0.00 | 0.55 | 0.55 | 62 | 1013.8 |
| 20260508010330 | 59 | 149 | 0.9 | 1.7 | 0.00 | 0.55 | 0.55 | 61 | 1013.6 |
| 20260508005827 | 59 | 195 | 0.9 | 3.5 | 0.00 | 0.55 | 0.55 | 61 | 1013.7 |
| 20260508005324 | 59 | 125 | 0.0 | 0.9 | 0.00 | 0.55 | 0.55 | 64 | 1013.6 |
| 20260508004820 | 59 | 121 | 0.0 | 1.7 | 0.00 | 0.55 | 0.55 | 67 | 1013.4 |
| 20260508004316 | 59 | 239 | 3.5 | 5.2 | 0.00 | 0.55 | 0.55 | 59 | 1013.2 |
| 20260508003812 | 60 | 142 | 0.0 | 1.7 | 0.00 | 0.55 | 0.55 | 62 | 1013.1 |
| 20260508003310 | 61 | 167 | 0.9 | 6.1 | 0.00 | 0.55 | 0.55 | 56 | 1013.2 |
| 20260508002807 | 61 | 151 | 1.7 | 2.6 | 0.00 | 0.55 | 0.55 | 57 | 1013.2 |
| 20260508002306 | 61 | 97 | 2.6 | 7.0 | 0.00 | 0.55 | 0.55 | 57 | 1013.2 |
| 20260508001800 | 61 | 103 | 0.9 | 8.7 | 0.00 | 0.55 | 0.55 | 57 | 1012.8 |
| 20260508001255 | 61 | 52 | 5.2 | 7.8 | 0.00 | 0.55 | 0.55 | 57 | 1012.8 |
| 20260508000752 | 61 | 11 | 3.5 | 6.1 | 0.00 | 0.55 | 0.55 | 58 | 1012.9 |
| 20260508000250 | 62 | 322 | 4.3 | 6.1 | 0.00 | 0.55 | 0.55 | 58 | 1012.6 |
| 20260507235745 | 62 | 354 | 2.6 | 13.0 | 0.00 | 0.55 | 0.55 | 57 | 1012.6 |
| 20260507235243 | 62 | 23 | 2.6 | 9.6 | 0.00 | 0.55 | 0.55 | 58 | 1012.6 |
| 20260507234740 | 62 | 137 | 0.9 | 5.2 | 0.00 | 0.55 | 0.55 | 59 | 1012.3 |
| 20260507234237 | 62 | 117 | 4.3 | 7.0 | 0.00 | 0.55 | 0.55 | 58 | 1012.2 |
| 20260507233733 | 63 | 349 | 3.5 | 8.7 | 0.00 | 0.55 | 0.55 | 58 | 1012.2 |
| 20260507233231 | 63 | 181 | 4.3 | 5.2 | 0.00 | 0.55 | 0.55 | 59 | 1012.1 |
| 20260507232728 | 63 | 96 | 2.6 | 6.1 | 0.00 | 0.55 | 0.55 | 58 | 1011.9 |
| 20260507232225 | 63 | 355 | 3.5 | 7.8 | 0.00 | 0.55 | 0.55 | 58 | 1012.0 |
| 20260507231721 | 64 | 29 | 4.3 | 9.6 | 0.00 | 0.55 | 0.55 | 57 | 1011.8 |
| 20260507231218 | 64 | 356 | 7.8 | 14.8 | 0.00 | 0.55 | 0.55 | 56 | 1011.9 |
| 20260507230715 | 65 | 9 | 8.7 | 15.6 | 0.00 | 0.55 | 0.55 | 55 | 1011.6 |
| 20260507230213 | 65 | 45 | 3.5 | 14.8 | 0.00 | 0.55 | 0.55 | 56 | 1011.6 |
| 20260507225711 | 65 | 318 | 4.3 | 13.0 | 0.00 | 0.55 | 0.55 | 56 | 1011.6 |
| 20260507225208 | 65 | 350 | 9.6 | 13.0 | 0.00 | 0.55 | 0.55 | 56 | 1011.5 |
| 20260507224705 | 66 | 9 | 4.3 | 20.9 | 0.00 | 0.55 | 0.55 | 56 | 1011.2 |
| 20260507224201 | 66 | 39 | 3.5 | 9.6 | 0.00 | 0.55 | 0.55 | 55 | 1011.2 |
| 20260507223657 | 66 | 94 | 4.3 | 11.3 | 0.00 | 0.55 | 0.55 | 55 | 1011.2 |
| 20260507223154 | 66 | 339 | 7.0 | 20.0 | 0.00 | 0.55 | 0.55 | 55 | 1011.0 |
| 20260507222651 | 67 | 277 | 4.3 | 14.8 | 0.00 | 0.55 | 0.55 | 55 | 1010.8 |
| 20260507222147 | 68 | 250 | 6.1 | 14.8 | 0.00 | 0.55 | 0.55 | 54 | 1010.8 |
| 20260507221644 | 69 | 20 | 4.3 | 12.2 | 0.00 | 0.55 | 0.55 | 55 | 1010.6 |
| 20260507221140 | 69 | 263 | 7.0 | 9.6 | 0.00 | 0.55 | 0.55 | 53 | 1010.2 |
| 20260507220637 | 70 | 267 | 6.1 | 15.6 | 0.00 | 0.55 | 0.55 | 54 | 1010.5 |
| 20260507220136 | 71 | 240 | 5.2 | 14.8 | 0.00 | 0.55 | 0.55 | 53 | 1010.2 |
| 20260507215631 | 71 | 178 | 1.7 | 6.1 | 0.00 | 0.55 | 0.55 | 53 | 1010.2 |
| 20260507215129 | 72 | 9 | 6.1 | 7.8 | 0.00 | 0.55 | 0.55 | 52 | 1010.1 |